Abilene Dyess, TX

9:48 PM CDT on April 25, 2017 (GMT -0500)
Dyess Air Force Base

Weather History for KDYS - April, 2013

Change the Weather History Date:

Sunday, April 7, 2013

  Actual Average Record
Temperature  
Mean Temperature 76 °F -  
Max Temperature 92 °F 72 °F 93 °F (2011)
Min Temperature 61 °F 49 °F 25 °F (2009)
Cooling Degree Days 12    
Growing Degree Days 26 (Base 50)    
Moisture  
Dew Point 54 °F    
Average Humidity 54    
Maximum Humidity 80    
Minimum Humidity 17    
Precipitation  
Precipitation 0.00 in - - ()
Sea Level Pressure  
Sea Level Pressure 29.62 in    
Wind  
Wind Speed 17 mph (South)    
Max Wind Speed 24 mph    
Max Gust Speed 31 mph    
Visibility 10 miles    
Events      
Averages and records for this station are not official NWS values.
T = Trace of Precipitation, MM = Missing Value Source: NWS Daily Summary

Daily Weather History Graph

Daily Weather History Graph

Search for Another Location

Airport or City:

Trip Planner

Search our weather history database for the weather conditions in past years. The results will help you decide how hot, cold, wet, or windy it might be!

Date:

Astronomy

Apr. 07, 2013 Rise Set
Actual Time 7:19 AM CDT 8:03 PM CDT
Civil Twilight 6:54 AM CDT 8:28 PM CDT
Nautical Twilight 6:25 AM CDT 8:58 PM CDT
Astronomical Twilight 5:55 AM CDT 9:28 PM CDT
Moon 5:29 AM CDT (4/7) 5:44 PM CDT (4/7)
Length of Visible Light 13h 33m
Length of Day
12h 44m
Waning Crescent, 8% of the Moon is Illuminated
Apr 7
Waning Crescent
Apr 10
New
Apr 18
First Quarter
Apr 25
Full
May 2
Last Quarter

Hourly Weather History & Observations

Time (CDT) Temp. Heat Index Dew Point Humidity Pressure Visibility Wind Dir Wind Speed Gust Speed Precip Events Conditions
12:58 AM 66.7 °F - 55.8 °F 68% 29.70 in 10.0 mi South 19.6 mph 26.5 mph N/A   Clear
1:58 AM 65.3 °F - 55.8 °F 71% 29.70 in 10.0 mi South 19.6 mph 25.3 mph N/A   Clear
2:58 AM 64.4 °F - 55.2 °F 72% 29.69 in 10.0 mi South 11.5 mph - N/A   Clear
3:58 AM 63.1 °F - 54.7 °F 74% 29.67 in 10.0 mi South 9.2 mph - N/A   Clear
4:58 AM 62.2 °F - 54.5 °F 76% 29.68 in 10.0 mi NNW 2.3 mph - N/A   Clear
5:58 AM 62.6 °F - 55.2 °F 77% 29.68 in 10.0 mi South 13.8 mph - N/A   Clear
6:58 AM 61.3 °F - 55.2 °F 80% 29.69 in 10.0 mi South 8.1 mph - N/A   Clear
7:58 AM 61.9 °F - 55.6 °F 80% 29.69 in 10.0 mi South 17.3 mph - N/A   Clear
8:58 AM 65.3 °F - 56.7 °F 74% 29.69 in 10.0 mi South 20.7 mph - N/A   Clear
9:58 AM 67.5 °F - 57.6 °F 70% 29.70 in 10.0 mi SSW 15.0 mph 23.0 mph N/A   Partly Cloudy
10:58 AM 70.7 °F - 57.9 °F 64% 29.69 in 10.0 mi South 20.7 mph 26.5 mph N/A   Partly Cloudy
11:58 AM 75.6 °F - 57.4 °F 53% 29.69 in 10.0 mi South 18.4 mph - N/A   Scattered Clouds
12:58 PM 78.8 °F - 58.3 °F 49% 29.65 in 10.0 mi SSW 20.7 mph 26.5 mph N/A   Mostly Cloudy
1:58 PM 84.6 °F 83.5 °F 56.5 °F 38% 29.61 in 10.0 mi South 20.7 mph 29.9 mph N/A   Mostly Cloudy
2:58 PM 88.3 °F - 51.4 °F 28% 29.58 in 10.0 mi South 20.7 mph 26.5 mph N/A   Scattered Clouds
3:58 PM 90.7 °F - 48.4 °F 23% 29.54 in 10.0 mi South 18.4 mph 26.5 mph N/A   Clear
4:58 PM 92.1 °F - 44.4 °F 19% 29.52 in 10.0 mi South 18.4 mph 25.3 mph N/A   Clear
5:58 PM 91.8 °F - 43.2 °F 18% 29.49 in 10.0 mi South 24.2 mph 28.8 mph N/A   Partly Cloudy
6:58 PM 89.4 °F - 39.7 °F 17% 29.50 in 10.0 mi South 23.0 mph 26.5 mph N/A   Clear
7:58 PM 84.7 °F - 43.0 °F 23% 29.52 in 10.0 mi South 16.1 mph - N/A   Clear
8:58 PM 78.1 °F - 58.3 °F 50% 29.54 in 10.0 mi SSE 16.1 mph - N/A   Clear
9:58 PM 74.8 °F - 60.6 °F 61% 29.57 in 10.0 mi SSE 24.2 mph 28.8 mph N/A   Clear
10:58 PM 74.7 °F - 60.1 °F 60% 29.58 in 10.0 mi South 24.2 mph 31.1 mph N/A   Clear
11:58 PM 73.6 °F - 59.7 °F 62% 29.57 in 10.0 mi South 20.7 mph - N/A   Clear